Other Public Products
Issued by NWS Grand Forks, ND

Home | Current Version | Previous Version | Graphics & Text | Print | Product List | Glossary On
Versions: 1 2 3 4 5 6 7 8 9 10 11 12 13 14 15 16 17 18 19 20 21 22 23 24 25 26 27 28 29 30 31 32 33 34 35 36 37 38 39 40 41 42 43 44 45 46 47 48 49 50
000
FPUS83 KFGF 291631
OPUFGF
PRAIRIE TO PINES WEATHER ROUNDUP
NATIONAL WEATHER SERVICE EASTERN NORTH DAKOTA/GRAND FORKS ND
1100 AM CDT SUN MAR 29 2015

 **SATELLITE DATA USED TO AUGMENT SKY COVER AT AUTOMATED STATIONS**
 *****  WEATHER ACROSS EASTERN NORTH DAKOTA  *****

CITY           SKY/WX    TMP DP  RH WIND       PRES   REMARKS
GRAND FORKS    CLOUDY    46  34  61 N25G35    29.83R
GRAND FORKS AF PTSUNNY   45  34  65 N26G37    29.83R
GRAND CITY NWS   N/A     45 N/A N/A N16         N/A
BUXTON           N/A     45  36  70 NW30G43     N/A
DEVILS LAKE    SUNNY     45  34  65 NW22      29.90R
FARGO          LGT RAIN  47  36  65 NW29G35   29.81R
WAHPETON ARPT  PTSUNNY   45  34  65 NW29G43   29.84R
$$

 *****  WEATHER ACROSS CENTRAL AND WESTERN NORTH DAKOTA  *****

CITY           SKY/WX    TMP DP  RH WIND       PRES   REMARKS
JAMESTOWN      SUNNY     45  33  63 NW25G37   29.91R
BISMARCK       SUNNY     48  32  53 NW20G26   30.05R
MINOT          SUNNY     49  30  48 W20G26    29.99R
MINOT AFB      SUNNY     46  36  69 NW22G30   29.98S
GARRISON         N/A     46  35  65 NW20      30.02S
WILLISTON      SUNNY     46  37  71 W15       30.07R
DICKINSON      MOSUNNY   44  36  73 NW17      30.07S
HETTINGER      SUNNY     46  35  65 NW21G29   30.12R
$$

 *****  OTHER OBSERVATIONS NORTHEAST NORTH DAKOTA  *****

CITY           SKY/WX    TMP DP  RH WIND       PRES   REMARKS
WALHALLA         N/A     45  39  81 NW26G33   29.84R
LANGDON        NOT AVBL
CAVALIER       PTSUNNY   45  36  70 NW28G36   29.83R
GRAFTON        NOT AVBL
CANDO          FAIR      48  28  46 NW24G30   29.91R
FORT TOTTEN      N/A     43  34  71 NW10      29.95S
ROLLA          FAIR      45  32  61 NW24G31   29.91R
RUGBY            N/A     45  34  65 NW23      29.95S
 ***** THE ABOVE OBSERVATIONS ARE NON NWS ARE NOT QUALITY
        CONTROLLED AND MAY MIS-REPORT RAIN FOR SNOW...
$$

 *****  OTHER OBSERVATIONS SOUTHEAST NORTH DAKOTA *****

CITY           SKY/WX    TMP DP  RH WIND       PRES   REMARKS
COOPERSTOWN    NOT AVBL
VALLEY CITY    FAIR      46  37  71 NW29G38   29.89R
OAKES            N/A     46  37  71 NW30G37   29.91R
GWINNER        MOSUNNY   46  37  71 NW30G39     N/A
SHEYENNE NWR     N/A     46  36  67 NW21      29.95
BUFFALO        NOT AVBL
WYNDMERE         N/A     45  37  76 NW28        N/A
 ***** THE ABOVE OBSERVATIONS ARE NON NWS ARE NOT QUALITY
       CONTROLLED AND MAY MIS-REPORT RAIN FOR SNOW...
$$

  *****  WEATHER ACROSS NORTHERN MINNESOTA  *****

CITY           SKY/WX    TMP DP  RH WIND       PRES   REMARKS
FLAG ISLAND    LGT SNOW  34  30  86 NW31G37   29.64R WCI  20
WARROAD        PTSUNNY   36  32  87 NW25G41   29.68R
ROSEAU         CLOUDY    37  32  81 NW25G32   29.71R
HALLOCK        CLOUDY    39  34  81 NW20G31   29.81R
THF RVR FALLS  CLOUDY    39  34  81 NW25G33   29.76R
HALSTAD          N/A     44  34  66 N35         N/A
FOSSTON        CLOUDY    37  32  81 NW23G36   29.75R
BAUDETTE       CLOUDY    35  31  85 NW22G29   29.62R WCI  23
WASKISH        CLOUDY    36  34  93 NW21G26   29.63R
CROOKSTON      CLOUDY    41  36  81 N32G41    29.81R
$$
  *****  WEATHER ACROSS CENTRAL AND WEST MINNESOTA  *****

CITY           SKY/WX    TMP DP  RH WIND       PRES   REMARKS
BEMIDJI        CLOUDY    37  33  85 NW25G36   29.65R
PARK RAPIDS    CLOUDY    40  34  79 NW23G37   29.63R
WADENA         CLOUDY    37  34  87 NW26G39   29.69R
DETROIT LAKES  CLOUDY    36  34  93 NW29G43   29.76R
MOORHEAD       MOSUNNY   45  39  81 NW29G38   29.82R
FERGUS FALLS   PTSUNNY   41  36  81 N35G47    29.81R
ELBOW LAKE     CLOUDY    39  33  79 NW26G41   29.79R
MORRIS MN      CLOUDY    43  36  75 NW41G48   29.77R
STAPLES        CLOUDY    39  36  87 NW23G36   29.65R
WHEATON        MOSUNNY   43  34  70 NW26G40   29.85R
$$
  *****  WEATHER ELSEWHERE ACROSS MINNESOTA  *****

CITY           SKY/WX    TMP DP  RH WIND       PRES   REMARKS
DULUTH         LGT SNOW  34  31  88 W15       29.46S VSB 3/4 WCI  24
INTRNTL FALLS  CLOUDY    37  34  89 NW22G28   29.52R
ELY            LGT SNOW  34  32  93 W8        29.43R
CLOQUET        SNOW      34  32  93 SW6       29.49R VSB 1/4
BRAINERD       LGT RAIN  40  36  86 NW22G31   29.58R
HIBBING        LGT SNOW  34  31  88 W7        29.48R FOG
ALEXANDRIA     CLOUDY    39  34  82 NW30G46   29.70R
SAINT CLOUD    LGT RAIN  36  34  92 NW21      29.61R
MINNEAPOLIS    CLOUDY    46  38  73 W17       29.56F
$$

  *****  WEATHER ACROSS SOUTH DAKOTA  *****

CITY           SKY/WX    TMP DP  RH WIND       PRES   REMARKS
SIOUX FALLS    CLOUDY    45  36  70 NW31G47   29.89R
BROOKINGS      NOT AVBL
WATERTOWN      MOSUNNY   45  36  70 NW33G40   29.89R
HURON          CLOUDY    46  34  62 NW35G46   29.99R
SISSETON         N/A     46  38  73 N33G47    29.84R
ABERDEEN       MOSUNNY   48  35  60 NW30G38   29.99R
MITCHELL       PTSUNNY   50  34  54 NW35G46   30.02R
PIERRE         SUNNY     48  30  49 NW28G40   30.10R
MOBRIDGE       SUNNY     48  34  58 NW22G31   30.04R
RAPID CITY     MOSUNNY   51  31  46 N26G33    30.20R
$$

  *****  SOME WEATHER IN NEARBY STATES *****

CITY           SKY/WX    TMP DP  RH WIND       PRES   REMARKS
GLASGOW MT     PTSUNNY   44  37  76 W7        30.11F
GREAT FALLS MT CLOUDY    46  26  45 SW18      30.14F
CHEYENNE WY    SUNNY     45  18  34 N15G21    30.29S
SCOTTSBLUFF NE SUNNY     53  30  41 NW23G31   30.29R
OMAHA NE       PTSUNNY   58  37  45 NW24G31   29.92S
DES MOINES IA  CLOUDY    50  40  68 SW20      29.87S
DAVENPORT IA   CLOUDY    35  28  75 S23G36    29.92R WCI  23
CHICAGO IL     LGT RAIN  37  18  46 S20G35    29.97F
EAU CLAIRE WI  CLOUDY    38  34  85 S15       29.56F
LA CROSSE WI   CLOUDY    37  32  82 S22G29    29.69F
$$

  *****  SOME NATIONAL WEATHER *****

CITY           SKY/WX    TMP DP  RH WIND       PRES   REMARKS
LA GUARDIA NY  SUNNY     36   3  25 NW9       30.28S
RALEIGH NC     SUNNY     42  10  27 VRB6      30.44F
ATLANTA GA     SUNNY     49  14  24 VRB7      30.40F
NEW ORLEANS LA MOSUNNY   71  56  58 SE14G23   30.30S
OKLAHOMA CITY  MOSUNNY   64  47  53 S13       29.95R
ALBUQUERQUE NM MOSUNNY   61  20  20 SW7       30.27R
SALT LAKE CITY SUNNY     49  24  37 SE9       30.33S
LOS ANGELES CA CLOUDY    59  57  94 E3        30.06R FOG
BOISE ID       MOSUNNY   47  30  51 CALM      30.32F
SEATTLE WA     CLOUDY    50  43  77 S9        30.27S
$$

*** WEATHER ACROSS MANITOBA...SASKATCHEWAN AND ONTARIO ***
                ***ONTARIO***

CITY           SKY/WX    TMP DP  RH WIND       PRES   REMARKS
GERALDTON      LGT SNOW  28  27  93 S15G28    29.39F VSB 3/4 WCI  17
THUNDER BAY    LGT SNOW  34  30  86 SW7       29.43F
SIOUX LOOKOUT  LGT SNOW  34  32  93 N16G25    29.41R FOG     WCI  23
TORONTO        MOSUNNY   39  12  33 S10G20    30.20F
BIG TROUT LK   FLURRIES  34  32  93 N10G18    29.41R
PICKLE LAKE    LGT SNOW  34  30  86 N8        29.35R
DRYDEN         LGT RAIN  34  32  93 NW15G23   29.48R WCI  24
KENORA         FLURRIES  34  32  93 N18G26    29.58R WCI  23
$$
                *** MANITOBA***

CITY           SKY/WX    TMP DP  RH WIND       PRES   REMARKS
BRANDON        SUNNY     41  32  70 NW15      29.91R
DAUPHIN        SUNNY     39  30  70 W13       29.86R
ISLAND LAKE    PTSUNNY   30  27  86 NW16G26   29.62R WCI  19
PILOT MOUND      N/A     41  34  75 NW23G29     N/A
THE PAS        SUNNY     41  27  56 W13       29.77R
THOMPSON       CLOUDY    27  21  80 N13       29.71R WCI  16
WINNIPEG       PTSUNNY   41  34  75 NW24G31   29.80R
LYNN LAKE      CLOUDY    28  23  80 E7        29.73R WCI  21
CHURCHILL      MOSUNNY    5   0  78 N17       29.84  WCI -14
GILLAM         SNOW      12   9  85 N16       29.72R VSB 1/2 WCI  -4
$$
                ***SASKATCHEWAN***

CITY           SKY/WX    TMP DP  RH WIND       PRES   REMARKS
ESTEVAN        MOSUNNY   43  36  75 W18       30.02R
KINDERSLEY     MOSUNNY   41  36  81 S8        29.97S
LLOYDMINSTER   MOSUNNY   43  34  70 SW9       29.88F
PRINCE ALBERT  MOSUNNY   43  30  61 NW13      29.91S
REGINA         MOSUNNY   41  37  87 W13       29.99F


USA.gov is the U.S. government's official web portal to all federal, state and local government web resources and services.